Simultaneous Nadir Overpasses (SNOs) Predictions

Prediction of SNOs between METOP-A and NOAA-19 Satellite Orbit:

Table of predicted SNOs for the next 14.0 days since TLE Epoch: 3/29/2014
Index Date (METOP-A) Time (METOP-A) Lat,Lon (METOP-A) SZA (METOP-A ) Date (NOAA-19) Time (NOAA-19) Lat,Lon (NOAA-19) SZA (NOAA-19 ) Distance(km) Time Diff (sec)
1 04/07/2014 18:58:03 -74.38, 70.61 112.65 04/07/2014 18:56:53 -74.42, 68.74 112.54 56.25 70
2 04/07/2014 19:48:50 74.01,-122.99 67.00 04/07/2014 19:47:43 74.04,-123.00 67.04 3.18 67
3 04/07/2014 20:39:32 -74.02, 44.36 113.01 04/07/2014 20:38:48 -74.00, 44.33 113.03 3.00 44
4 04/07/2014 21:30:12 73.99,-148.37 66.96 04/07/2014 21:29:46 74.00,-148.42 66.97 1.74 26
5 04/07/2014 22:20:55 -73.95, 18.86 113.10 04/07/2014 22:20:51 -73.96, 18.91 113.09 1.66 4
6
